STARLETTE 1 07646U 75010A 10075.22461042 -.00000152 00000-0 -86893-5 0 2161 2 07646 49.8263 137.2570 0205613 251.3175 106.5285 13.82272736773312 LAGEOS 1 1 08820U 76039A 10075.54609288 .00000023 00000-0 10000-3 0 9223 2 08820 109.8579 305.7250 0044493 133.9963 226.4570 6.38664814534430 AJISAI (EGS) 1 16908U 86061A 10074.97423508 -.00000083 00000-0 10000-3 0 1678 2 16908 50.0102 43.3426 0011527 188.5010 171.5628 12.44463880741445 LAGEOS 2 1 22195U 92070B 10074.84859300 -.00000009 00000-0 10000-3 0 1408 2 22195 52.6558 59.1571 0138834 111.7213 249.8189 6.47294183411251 STELLA 1 22824U 93061B 10075.03344159 -.00000072 00000-0 -12011-4 0 5175 2 22824 98.5137 20.6527 0005732 214.6626 145.4202 14.27286645857967 WESTPAC 1 25398U 98043E 10075.01675877 -.00000018 00000-0 98790-5 0 7621 2 25398 98.3205 86.3042 0002107 121.8653 238.2739 14.22680078606661 GRACE-1 1 27391U 02012A 10075.42552607 .00001247 00000-0 36054-4 0 4419 2 27391 89.0198 326.7141 0018368 120.7147 239.5902 15.34566957447052 GRACE-2 1 27392U 02012B 10075.75123229 .00001189 00000-0 34292-4 0 4417 2 27392 89.0194 326.6876 0019362 122.5174 237.7968 15.34566442447105 GOCE 1 34602U 09013A 10074.68611564 -.00000603 19263-5 86799-8 0 9507 2 34602 96.6425 88.4878 0006360 306.1191 53.9504 16.05983002 58180